Regional Weather Roundup
Issued by NWS Wakefield, VA

Home | Current Version | Previous Version | Graphics & Text | Print | Product List | Glossary On
Versions: 1 2 3 4 5 6 7 8 9 10 11 12 13 14 15 16 17 18 19 20 21 22 23 24 25 26 27 28 29 30 31 32 33 34 35 36 37 38 39 40 41 42 43 44 45 46 47 48 49 50
815
ASUS41 KAKQ 241315
RWRAKQ

REGIONAL WEATHER ROUNDUP
NATIONAL WEATHER SERVICE WAKEFIELD VA
900 AM EDT TUE MAY 24 2016

Note: "fair" indicates few or no clouds below 12,000 feet with no
significant weather and/or obstructions to visibility. * = Denotes
station may not report precipitation (e.g., rain,snow,etc.),
thunder or fog.

VAZ042-051-052>054-056-241400-
NORTHERN VIRGINIA

CITY           SKY/WX    TMP DP  RH WIND       PRES   REMARKS
WASH NATIONAL  FAIR      69  54  58 NW14G22   30.00R
DULLES         FAIR      67  55  65 NW13      30.02R
FORT BELVOIR   NOT AVBL
QUANTICO       FAIR      66  57  72 NW8       30.02R
FREDERICKSBRG* FAIR      68  57  68 W8        30.02R
STAFFORD*      FAIR      64  56  76 NW6       30.06R
WARRENTON      FAIR      64  56  73 CALM      30.03R
CULPEPER*      FAIR      66  59  80 CALM      30.05R
MANASSAS*      SUNNY     63  61  94 CALM      30.02R
LEESBURG*      FAIR      70  57  64 NW12G18   30.04R
WINCHESTER     FAIR      68  54  60 W7        30.05R
FRONT ROYAL*   FAIR      63  55  77 S7        30.05R
LURAY*         FAIR      63  57  82 CALM      30.08R
$$

VAZ048-049-060>072-079>083-241400-
CENTRAL AND SOUTH CENTRAL VIRGINIA

CITY           SKY/WX    TMP DP  RH WIND       PRES   REMARKS
RICHMOND       FAIR      64  55  72 W5        30.04R
CHESTERFIELD*  FAIR      66  48  52 W7        30.06R
PETERSBURG*    FAIR      66  58  73 SW6       30.06R
HANOVER        FAIR      65  56  72 W3        30.05R
TAPPAHANNOCK*  FAIR      68  57  68 W8        30.03R
QUINTON*       FAIR      62  57  84 NW5       30.03R
CHARLOTTSVILLE FAIR      69  55  60 CALM      30.05R
GORDONSVILLE*  FAIR      70  56  61 NW3       30.04R
ORANGE*        FAIR      68  59  73 CALM      30.06R
LOUISA*        FAIR      70  63  78 W5        30.04R
BUMPASS*       PTSUNNY   66  59  76 CALM      30.04R
FARMVILLE*     FAIR      63  59  88 SW3       30.06R
CREWE*         FAIR      60  59  96 CALM      30.06R
FORT PICKETT*  NOT AVBL
CHASE CITY*    FAIR      59  57  92 CALM      30.09S
CLARKSVILLE*   FAIR      63  55  77 W5        30.09R
SOUTH HILL*    FAIR      63  56  78 W5        30.14R
LAWRENCEVILLE* FAIR      62  56  80 CALM      30.07S
EMPORIA*       FAIR      63  55  77 S5        30.08R
$$

VAZ088>098-241400-
SOUTHEAST VIRGINIA

CITY           SKY/WX    TMP DP  RH WIND       PRES   REMARKS
NORFOLK        FAIR      64  55  72 SW10      30.02R
VIRGINIA BEACH FAIR      66  55  67 SW10      30.02R
NORFOLK NAVAL  PTSUNNY   63  56  78 W9        30.04R
WEST POINT*    FAIR      64  59  85 W8        30.04R
SALUDA*        FAIR      66  58  75 W5        30.00R
NEWPORT NEWS   FAIR      63  57  81 W9        30.03R
LANGLEY AFB    MOSUNNY   63  57  81 SW10      30.02R
FORT EUSTIS    NOT AVBL
WILLIAMSBURG*    N/A    N/A N/A N/A W5        30.04R
HR EXEC AP*      N/A     61  57  88 W5        30.06R
FRANKLIN*      PTSUNNY   61  55  81 W5        30.06R
US460-WAKEFLD  FAIR      62  55  77 W7        30.04R
$$

VAZ020-022-025-037-045-241400-
WEST CENTRAL AND SOUTHWEST VIRGINIA

CITY           SKY/WX    TMP DP  RH WIND       PRES   REMARKS
STAUNTON*      FAIR      65  60  83 SE5       30.11S
WAYNESBORO*    FAIR      63  53  69 SW6       30.11R
HOT SPRINGS VA FAIR      56  48  74 NW7       30.17R
LYNCHBURG      FAIR      63  58  83 S3        30.11R
DANVILLE       FAIR      62  56  80 SW7       30.11R
SOUTH BOSTON*  FAIR      62  58  87 SW3       30.10R
MARTINSVILLE   FAIR      59  53  82 W3        30.16R
ROANOKE        FAIR      62  54  74 CALM      30.15R
BLACKSBURG     FAIR      57  53  86 CALM      30.20R
DUBLIN*        FAIR      61  55  80 SW3       30.19R
MARION*        FAIR      59  51  77 W8        30.23R
HILLSVILLE*    FAIR      57  51  81 W3        30.18R
RICHLANDS*     FAIR      57  38  47 CALM      30.21R
WISE*          FAIR      61  46  59 SW3       30.21R
ABINGDON*      FAIR      60  52  75 E3        30.19R
$$

MDZ021>025-VAZ099-100-241400-
SOUTHERN MARYLAND AND THE DELMARVA PENINSULA

CITY           SKY/WX    TMP DP  RH WIND       PRES   REMARKS
PATUXENT RIVER PTSUNNY   68  55  63 W13G22    29.98R
BAY BRIDGE APT SUNNY     64  55  72 NW5       29.97R
LEONARDTOWN    MOSUNNY   64  55  72 W9        30.01R
DOVER          NOT AVBL
GEORGETOWN     MOSUNNY   65  57  75 W7        29.96R
EASTON         PTSUNNY   64  61  88 NW8       30.00R
CAMBRIDGE      SUNNY     63  55  77 W9        29.97R
SALISBURY      MOSUNNY   65  57  75 W10       29.96R
OCEAN CITY     CLOUDY    66  57  72 W7        29.95S
WALLOPS ISLAND FAIR      65  58  78 W8        29.98R
ACCOMACK*      FAIR      68  54  60 W6        29.99S
$$

NCZ012>017-030>032-241400-
NORTH CENTRAL AND EASTERN NORTH CAROLINA

CITY           SKY/WX    TMP DP  RH WIND       PRES   REMARKS
ROANOKE RAPIDS FAIR      63  54  72 SW6       30.08S
RALEIGH        MOSUNNY   64  57  78 SW8       30.12R
ELIZABETH CITY SUNNY     64  55  72 W10       30.06R
AHOSKIE*       SUNNY     61  55  80 CALM      30.08R HAZE
EDENTON*       SUNNY    N/A N/A N/A W12       30.09R
CURRITUCK*     SUNNY     63  56  76 SW12G17   30.05S
KILL DEVIL HLS SUNNY     66  56  72 W5        30.05R
MANTEO         SUNNY     63  56  79 W6        30.07R
CAPE HATTERAS  SUNNY     68  56  65 W8        30.09R
TARBORO*       FAIR      64  55  74 W8        30.11R
GOLDSBORO      NOT AVBL
WASHINGTON     SUNNY     65  54  68 W7        30.10R
GREENVILLE     SUNNY     64  55  72 W5        30.11R
NEW BERN       SUNNY     65  53  65 W6        30.12R
WILMINGTON     SUNNY     67  55  65 W6        30.14R
$$

VAZ048-241400-
ELSEWHERE

CITY           SKY/WX    TMP DP  RH WIND       PRES   REMARKS
HARRISBURG PA  MOSUNNY   67  53  61 NW12      29.98R
BALTIMORE      PTSUNNY   66  54  65 NW13      29.98R
ANNAPOLIS      SUNNY     66  55  67 NW8       29.98R
ANDREWS AFB    NOT AVBL
PHILADELPHIA   CLOUDY    63  55  75 W5        29.94S
HENDERSON NC   SUNNY     62  53  72 W3        30.10R
GREENSBORO     MOSUNNY   67  52  58 NW8       30.13R
ROCKY MOUNT    SUNNY     64  55  72 W8        30.10R
$$

VAZ100-241400-
MARINE

STATION/POSITION TIME  TEMP    WIND        PRES    WAVE   SWELL
                       AIR SEA DIR/SP/G            HT/PER HT/PER
                 (UTC) (F)     (DEG/KT/KT) (MB)    (FT/S) (FT/S)
BRANDYWINE LGT   1200   60     280/  9/ 10 1013.8R
CAPE MAY NJ      1200   61 62  250/  4/  5 1013.5R
LEWES DE         1200   62 58  280/ 10/ 13 1013.7R
15NM E FENWICK I 1250   57 55              1014.2R   3/ 8
OCEAN-CITY-INLET 1200   59 60  250/  8/  9 1013.3R
WACHAPREAGUE VA  1200   62 63  270/  5/  9 1014.7R
THOMAS POINT MD  1300   64 61  300/ 15/ 18 1016.3R
GOOSES REEF MD   1300   64 61  290/ 12/ 16 1016.1R   2/ 2
COVE POINT MD    1200   63     310/ 12/ 17 1015.1R
SOLOMONS ISLAND  1200   64 62  280/  5/  8   N/A
BISHOPS HEAD MD  1200   62 63  280/ 11/ 13 1014.8R
PINEY POINT MD   1200          330/  8/  8   N/A
POTOMAC MD       1300   62 62  300/ 12/ 12 1014.7R   1/ 3
CAMBRIDGE MD     1200   62 63  250/  8/ 10 1013.6R
LEWISETTA VA     1200   62 63  290/  6/  7 1014.7R
RAPPAHANNOCK LGT 1200          260/  8/  9 1016.0R
STINGRAY PT      1300   64 64  300/  6/  6 1016.3R
YORK RVR RNG VA  1200   62     280/ 11/ 12 1014.9R
YORKTOWN VA      1200   62 64  250/  8/ 10 1015.5R
JAMESTOWN VA     1300   61 66  290/  8/ 10   N/A     0
DOMINION TERM VA 1200   60     240/ 11/ 13 1016.2R
KIPTOPEKE VA     1200      63  240/  9/ 10   N/A
CHES BAY BRIDGE  1200   60 63  200/ 13/ 14 1015.8R
CAPE HENRY VA    1200   61     220/  8/ 12   N/A
CHESAPEAKE LGHT  1200   60     240/ 16/ 16 1016.3F
WILLOUBY STN VA  1200   60     230/ 15/ 16 1016.7R
CAPE HENRY BUOY  1212      59                N/A     3/ 9   2/11
1ST LANDING BUOY 1300   62 63  240/ 12/ 14 1016.5R   2/ 4
CAPE CHARLES BUO 1226      60                N/A     3/10   3/10
OFFSHORE WE BUOY 1221      56                N/A     4/10   3/10
64NM E OF VA BCH 1250   58 56  240/ 10/ 12 1016.2R   5/10   5/10
DUCK PIER NC     1200   62 62  240/ 10/ 12 1016.6R
44100 DUCK FRF   1224      58                N/A     4/10   2/11
44056 DUCK FRF   1211      62                N/A     3/10   2/11
OREGON INLET NC  1200   61 63  260/  7/ 10 1017.8R
HATTERAS NC      1200   65 66  280/ 15/ 16 1018.0R
DIAMOND SHLS NC  1250   65 67  290/ 12/ 16 1018.8R   4/1C1F1C2F2C3F3C4F4C5F5C6F6C7F7C8M1C9!



USA.gov is the U.S. government's official web portal to all federal, state and local government web resources and services.